Regional Weather Roundup
Issued by NWS New Orleans/Baton Rouge, LA

Home | Current Version | Previous Version | Graphics & Text | Print | Product List | Glossary On
Versions: 1 2 3 4 5 6 7 8 9 10 11 12 13 14 15 16 17 18 19 20 21 22 23 24 25 26 27 28 29 30 31 32 33 34 35 36 37 38 39 40 41 42 43 44 45 46 47 48 49 50
052
ASUS44 KLIX 301710
RWRLIX
NEW ORLEANS REGIONAL WEATHER ROUNDUP
NATIONAL WEATHER SERVICE NEW ORLEANS LA
1200 PM CDT WED JUL 30 2014

NOTE: "FAIR" INDICATES FEW OR NO CLOUDS BELOW 12,000 FEET WITH NO
      SIGNIFICANT WEATHER AND/OR OBSTRUCTIONS TO VISIBILITY.
      SKY/WX - SKY CONDITION AND SIGNIFICANT WEATHER.
      TMP - AIR TEMPERATURE.     DP    - DEWPOINT TEMPERATURE.
      RH  - RELATIVE HUMIDITY.   PRES  - PRESSURE.
      HI  - HEAT INDEX.          WCI   - WIND CHILL INDEX.

*  THESE STATIONS ARE NOT NWS OR FAA STATIONS AND ARE NOT UNDER
   NWS QUALITY CONTROL.

LAZ038-040-048-061>063-065>067-069-301800-
SOUTHEAST LOUISIANA

CITY           SKY/WX    TMP DP  RH WIND       PRES   REMARKS
N.O. AUDUBON     N/A     87  64  45 MISG        N/A
N.O. INTL ARPT PTSUNNY   85  61  44 NE12      30.07F
N.O. LAKEFRONT   N/A     81  60  48 NE7       30.08F
N.O. DOWNTOWN*   N/A     84  59  42 N5        30.07F
SLIDELL          N/A     83  61  47 NE6       30.06F
BATON ROUGE      N/A     83  60  45 E5        30.08F
BOOTHVILLE       N/A     84  69  60 NE7       30.06F
BELLE CHASSE     N/A     84  62  47 NE8       30.06F
BOGALUSA*        N/A     82  60  48 N6        30.09F
GALLIANO*      NOT AVBL
NEW ROADS*       N/A     81  63  53 CALM      30.09F
GONZALES*        N/A     81  64  55 CALM      30.07F
HAMMOND*         N/A     84  57  39 CALM      30.09F
HOUMA*         MOSUNNY   88  64  45 N5        30.07S
PORT FOURCHON* MOSUNNY   86  70  58 N7        30.07F

$$

MSZ070-080>082-301800-
SOUTHERN MISSISSIPPI

CITY           SKY/WX    TMP DP  RH WIND       PRES   REMARKS
MCCOMB           N/A     79  57  46 N3        30.10F
GULFPORT         N/A     86  59  39 N9        30.05F
BILOXI           N/A     83  59  43 NW3       30.05F
PASCAGOULA       N/A     83  60  45 VRB7      30.05F
STENNIS ARPT*  SUNNY    N/A N/A N/A N7        30.07

$$

COASTAL OBSERVATIONS
LAKE AND NEARSHORE STATIONS

STATION/POSITION TIME  TEMP    WIND        PRES    WAVE
                       AIR SEA DIR/SP/G            HT/PER
                 (UTC) (F)     (DEG/KT/KT) (MB)    (FT/S)
PASCAGOULA       1700   84      10/  5/  9 1017.2
WAVELAND YACHT   1700   79      10/  3/  5 1017.4
GRAND ISLE       1700   83 86   40/  5/  7 1018.5
SOUTHWEST PASS   1700   90 84   70/  5/  6 1018.0
NEW CANAL        1700   78 82   50/  8/ 12 1018.8
SHELL BEACH      1700   78 80   20/ 11/ 13 1018.0

OFFSHORE STATIONS

STATION/POSITION TIME  TEMP    WIND        PRES    WAVE
                       AIR SEA DIR/SP/G            HT/PER
                 (UTC) (F)     (DEG/KT/KT) (MB)    (FT/S)
64 S DAUPHIN ISL 1605   81 86   50/  8/ 10 1017.5

$$




USA.gov is the U.S. government's official web portal to all federal, state and local government web resources and services.